Cloud_Cover
0 0 0 0 0 18 100 100 100 100 100 100 100 100 100 100 100 100 100 100 100 100 100 100 100 100 100 100 100 100 100 100 76 86 100 100 100 100 100 100 100 100 100 100
0 0 0 0 0 56 100 100 100 99 82 100 100 100 100 100 100 100 100 100 100 100 100 100 100 100 100 100 100 100 100 100 15 5 95 100 100 100 100 100 100 100 100 100
5 0 0 0 0 13 78 100 100 100 100 35 44 88 100 100 100 100 100 100 100 100 100 100 100 100 100 99 100 92 100 100 97 76 99 100 100 100 100 100 100 100 100 95
5 0 0 0 0 10 97 100 85 100 100 100 14 80 90 100 100 100 100 100 100 100 100 100 100 100 100 70 100 100 100 100 100 100 100 100 100 100 100 100 100 100 100 100
4 5 5 4 5 7 100 100 100 53 7 100 100 100 37 100 100 100 100 100 100 100 100 100 100 98 75 100 99 100 100 100 100 99 100 100 100 100 100 100 100 100 100 100
5 5 1 1 1 7 95 100 49 100 100 98 100 60 3 48 100 100 100 100 100 100 100 100 100 100 86 100 100 100 100 100 100 100 100 100 100 100 99 100 100 100 100 99
14 5 0 0 9 3 8 100 100 100 100 100 100 74 78 100 100 100 100 100 100 100 100 100 96 100 100 100 100 100 100 100 100 100 100 100 90 95 88 100 100 100 100 100
8 5 3 17 0 4 12 65 100 100 100 100 100 100 87 100 100 100 100 100 100 100 100 100 100 100 100 100 100 100 100 100 100 100 100 100 95 56 95 100 100 92 100 100
27 5 5 50 7 1 6 54 100 100 100 100 100 100 59 100 100 100 100 100 100 100 100 100 100 100 100 100 100 100 100 100 100 100 100 98 62 64 100 100 63 46 100 100
5 5 6 11 10 0 6 14 100 100 100 100 100 100 27 99 100 100 100 100 100 100 100 100 100 100 100 100 100 90 100 100 100 100 100 99 98 97 100 100 100 100 100 100
28 85 51 77 74 1 5 12 100 100 100 100 100 100 98 100 100 100 100 100 100 100 100 100 100 100 100 100 100 100 100 100 100 100 100 100 100 100 100 86 100 100 100 100
100 100 100 100 34 4 18 48 97 100 100 100 100 100 100 100 100 100 100 100 100 100 100 100 100 100 100 100 100 100 100 100 100 100 100 100 71 60 100 100 100 100 100 100
100 100 100 100 68 2 5 66 100 100 100 100 100 100 100 100 100 100 100 100 100 100 100 100 100 100 100 100 100 100 100 100 100 100 100 100 100 100 100 100 100 100 100 100
100 100 100 94 15 5 9 93 100 100 100 100 100 100 100 100 100 100 100 100 100 100 100 100 100 100 100 100 100 100 100 100 100 100 100 100 100 100 100 100 100 94 92 88
100 100 100 98 65 100 100 100 100 100 100 100 100 100 100 100 100 100 100 100 100 100 100 100 100 100 100 100 100 100 100 100 100 100 100 100 100 100 100 70 18 76 53 6
100 100 100 40 100 100 100 100 100 100 100 100 100 100 100 100 100 100 100 100 100 100 100 100 100 100 100 100 100 100 100 100 100 100 100 100 60 6 33 90 85 12 5 12
100 83 8 48 100 100 100 100 100 100 100 100 100 100 100 100 100 100 100 100 100 100 100 100 100 100 100 100 100 100 100 100 100 98 94 44 87 69 75 42 92 61 94 67
100 93 100 100 100 100 100 100 100 100 100 100 100 100 100 100 100 100 100 100 100 100 100 100 100 100 100 100 100 100 100 93 57 72 35 94 81 5 7 28 17 61 66 83
100 100 100 100 100 100 100 100 100 100 100 100 100 100 100 100 100 100 100 100 100 100 100 100 100 100 100 100 100 100 97 100 76 66 95 11 6 64 37 33 81 96 100 100
100 100 100 100 100 100 100 100 100 100 100 100 100 100 100 100 100 100 100 100 100 100 100 100 100 100 100 99 98 100 70 64 100 85 47 91 66 95 91 99 100 99 100 100
100 100 100 100 100 100 100 100 100 100 100 100 100 100 100 100 100 100 100 100 100 100 100 100 100 90 100 100 87 56 66 20 52 75 61 92 100 100 100 99 98 95 75 94
100 100 100 100 100 100 100 100 100 100 100 100 100 100 100 100 100 100 100 100 100 100 100 100 100 100 88 62 91 91 100 100 99 100 100 100 93 87 83 92 73 14 53 28
100 100 100 100 100 100 100 100 100 100 100 100 100 100 100 100 100 100 100 91 100 100 100 100 100 100 32 18 86 100 100 100 100 98 98 89 15 5 5 41 13 14 72 5
100 100 100 100 100 100 100 100 100 100 100 100 100 100 100 100 100 97 100 100 100 100 97 40 95 82 99 94 100 97 94 65 23 5 5 3 5 3 0 4 3 5 4 5
100 100 100 100 100 100 100 100 100 100 100 100 100 100 100 100 100 97 99 81 64 70 49 96 92 100 100 100 90 86 35 5 0 0 0 2 1 0 3 4 5 5 5 5
100 100 100 100 100 100 100 100 100 100 100 100 100 100 100 100 99 97 100 88 65 100 100 100 100 97 100 71 68 5 4 0 0 0 0 3 2 4 5 5 5 5 5 5
100 100 100 100 100 100 100 100 100 100 100 100 97 97 88 24 82 98 95 93 93 99 100 100 90 82 79 50 5 5 3 0 0 0 0 2 5 3 5 5 5 5 53 66